This is the latest recevied weather packets stored in our database for station/object ANJALA. If no packets are shown the sender has not sent any weather packets the latest 10 day(s).
| Time | Temp. | Humidity | Pressure | Rain* | Wind** | Luminosity | Snow |
|---|---|---|---|---|---|---|---|
| 1777699619 | 10.56° C | 67% | - | 0 mm | - | - | - |
| 1777698419 | 8.89° C | 68% | - | 0 mm | - | - | - |
| 1777697219 | 8.89° C | 73% | - | 0 mm | - | - | - |
| 1777696019 | 7.78° C | 79% | - | 0 mm | - | - | - |
| 1777694818 | 6.11° C | 84% | - | 0 mm | - | - | - |
| 1777693618 | 3.89° C | 98% | - | 0 mm | - | - | - |
| 1777692418 | 2.78° C | 98% | - | 0 mm | - | - | - |
| 1777691218 | 2.78° C | 96% | - | 0 mm | - | - | - |
| 1777690018 | 3.33° C | 97% | - | 0 mm | - | - | - |
| 1777688818 | 3.33° C | 98% | - | 0 mm | - | - | - |
| 1777673218 | 6.67° C | 88% | - | 0 mm | - | - | - |
| 1777672018 | 6.67° C | 84% | - | 0 mm | - | - | - |
| 1777670817 | 7.78° C | 83% | - | 0 mm | - | - | - |
| 1777669617 | 7.78° C | 79% | - | 0 mm | - | - | - |
| 1777668417 | 8.33° C | 77% | - | 0 mm | - | - | - |
| 1777667217 | 9.44° C | 74% | - | 0 mm | - | - | - |
| 1777666017 | 10° C | 71% | - | 0 mm | - | - | - |
| 1777664821 | 10° C | 70% | - | 0 mm | - | - | - |
| 1777663617 | 11.11° C | 65% | - | 0 mm | - | - | - |
| 1777662417 | 12.78° C | 58% | - | 0 mm | - | - | - |
| 1777661217 | 13.33° C | 54% | - | 0 mm | - | - | - |
| 1777660017 | 14.44° C | 50% | - | 0 mm | - | - | - |
| 1777658817 | 14.44° C | 44% | - | 0 mm | - | - | - |
| 1777656417 | 18.33° C | 30% | - | 0 mm | - | - | - |
| 1777655217 | 19.44° C | 29% | - | 0 mm | - | - | - |
* Rain latest hour (hover to see other rain measurements)
** Current wind speed in m/s (hover to see current wind gust speed)